< < Back
Terminal Aerodrome Forecast


Current Version              Previous Versions:   1  2  3  4  5  6  7  8  9  

Terminal Aerodrome Forecast

062
FTUS42 KFFC 020500 RRA
TAFATL
TAF
KATL 020543Z 0206/0312 VRB03KT P6SM SCT150 SCT250
     FM021400 24004KT P6SM SCT035 SCT150
     FM021800 27006KT P6SM SCT050 SCT150 PROB30 0219/0223 VRB15G30KT
      5SM TSRA BKN045CB
     FM030100 VRB03KT P6SM FEW050 BKN120=



Latest METAR

684
SAUS70 KWBC 020900 RRD
MTRATL
METAR KATL 020852Z 22003KT 10SM FEW150 22/21 A3009 RMK AO2 SLP179
T02220206 57002


USA.gov is the U.S. government's official web portal to all federal, state and local government web resources and services.